Weather in Kolpna

Russia / Oryol Oblast     52°13′41″N   37°02′25″E
temp.,
°C
wind,
m/s
gust,
m/s
humid.,
%
clouds,
%
prec.,
mm/h
press.,
hPa
HPBL,
m
15 april, thu
thu1500:00+12e3660100 0.0 1014108
03:00+12e3662100 0.0 1013107
06:00+10ese3776100 0.0 1013150
09:00+13sse466868 0.0 1013562
12:00+15s565859 1.3 10131400
15:00+17s464365 1.8 10122109
18:00+16sse4647100 0.0 1012356
21:00+12s38675 0.0 1014203
16 april, fri
fri1600:00+10se337675 0.0 101439
03:00+10e337916 0.0 101463
06:00+8se3592100 0.3 1015116
09:00+11sse467354 0.5 1016732
12:00+15sse574384 0.0 10161670
15:00+16se573789 0.0 10152620
18:00+14s455363 0.0 1016697
21:00+10ssw226435 0.0 101731
17 april, sat
sat1700:00+9nw1169100 0.0 101712
03:00+9ssw11734 0.1 101716
06:00+6wsw228398 0.0 101922
09:00+9ssw2278100 0.4 1019181
12:00+9w3481100 1.5 1019389
15:00+8wnw3592100 15.6 1020388
18:00+8wnw3588100 0.3 1019244
21:00+8nw2393100 0.4 102089
18 april, sun
sun1800:00+8nnw1193100 0.0 102122
03:00+8nnw129395 0.0 102119
06:00+7ne499138 0.0 1022269
09:00+10ene57725 0.0 1022492
12:00+13ene56581 0.0 1023933
15:00+15ene665222 0.0 10231453
18:00+14ene57575 0.0 1024768
21:00+9ene38695 0.0 1025161
19 april, mon
mon1900:00+7ene4117363 0.0 1026225
03:00+6e410765 0.0 1027184
06:00+5e4107990 0.0 1027208
09:00+10ese6116188 0.0 1027591
12:00+13ese81049100 0.0 10261572
15:00+14ese81046100 0.0 10251849
18:00+12ese71255100 0.0 10241225
21:00+9e91667100 0.0 1024792